Location: Bishop�s Knoyle
(51.0728°N, 2.1714°W)
Time: 00:00:45
(UTC+00:00)

N. Korean satellite - Visible Passes

Search period start: 27 September 2021 00:00
Search period end: 07 October 2021 00:00
Orbit: 449 x 498 km, 97.3° (Epoch: 26 September)

Date Brightness Start Highest point End Pass type
(mag) Time Alt. Az. Time Alt. Az. Time Alt. Az.
28 Sep 7.8 05:14:44 10° NNE 05:18:12 46° E 05:21:41 10° S visible
29 Sep 9.2 04:47:18 10° NE 04:50:14 23° E 04:53:11 10° SSE visible
30 Sep 10.0 04:20:36 10° ENE 04:22:09 12° E 04:23:43 10° ESE visible
01 Oct 7.2 05:24:22 10° NNE 05:27:56 61° E 05:31:31 10° S visible
02 Oct 8.8 04:56:46 10° NNE 04:59:59 30° E 05:03:12 10° SSE visible
03 Oct 9.8 04:29:38 10° NE 04:31:54 16° E 04:34:10 10° SE visible
04 Oct 6.8 05:33:56 10° NNE 05:37:33 80° ESE 05:41:12 10° S visible
05 Oct 8.3 05:06:12 10° NNE 05:09:36 38° E 05:13:01 10° SSE visible
06 Oct 9.5 04:38:49 10° NE 04:41:32 20° E 04:44:15 10° SE visible
